Time,TemperatureF,DewpointF,PressureIn,WindDirection,WindDirectionDegrees,WindSpeedMPH,WindSpeedGustMPH,Humidity,HourlyPrecipIn,Conditions,Clouds,dailyrainin,SolarRadiationWatts/m^2,SoftwareType,DateUTC
2013-04-25 00:32:00,58.0,15.0,-100.00,WNW,288,10.0,16.0,18,0.00,,,0.00,0.000000,,2013-04-25 07:32:00,
2013-04-25 01:32:00,57.0,16.0,-100.00,WNW,287,6.0,16.0,20,0.00,,,0.00,0.000000,,2013-04-25 08:32:00,
2013-04-25 02:33:00,54.0,19.0,-100.00,WNW,298,7.0,14.0,25,0.00,,,0.00,0.000000,,2013-04-25 09:33:00,
2013-04-25 03:00:00,51.0,20.0,-100.00,WNW,290,8.0,12.0,29,0.00,,,-99.99,0.000000,,2013-04-25 10:00:00,
2013-04-25 03:22:00,51.0,20.0,-100.00,WNW,290,8.0,12.0,29,0.00,,,-99.99,0.000000,,2013-04-25 10:22:00,
2013-04-25 03:33:00,51.0,20.0,-100.00,WNW,290,8.0,12.0,29,0.00,,,-99.99,0.000000,,2013-04-25 10:33:00,
2013-04-25 03:42:00,51.0,20.0,-100.00,WNW,290,8.0,12.0,29,0.00,,,-99.99,0.000000,,2013-04-25 10:42:00,
2013-04-25 03:53:00,51.0,20.0,-100.00,WNW,290,8.0,12.0,29,0.00,,,-99.99,0.000000,,2013-04-25 10:53:00,
2013-04-25 04:00:00,51.0,21.0,-100.00,WNW,298,7.0,13.0,30,-99.99,,,0.00,0.000000,,2013-04-25 11:00:00,
2013-04-25 04:22:00,51.0,21.0,-100.00,WNW,298,7.0,13.0,30,-99.99,,,0.00,0.000000,,2013-04-25 11:22:00,
2013-04-25 04:32:00,51.0,21.0,-100.00,WNW,298,7.0,13.0,30,-99.99,,,0.00,0.000000,,2013-04-25 11:32:00,
2013-04-25 04:42:00,51.0,21.0,-100.00,WNW,298,7.0,13.0,30,-99.99,,,0.00,0.000000,,2013-04-25 11:42:00,
2013-04-25 04:52:00,51.0,21.0,-100.00,WNW,298,7.0,13.0,30,-99.99,,,0.00,0.000000,,2013-04-25 11:52:00,
2013-04-25 05:22:00,49.0,21.0,-100.00,WNW,293,8.0,11.0,33,0.00,,,0.00,0.000000,,2013-04-25 12:22:00,
2013-04-25 05:32:00,49.0,21.0,-100.00,WNW,293,8.0,11.0,33,0.00,,,0.00,0.000000,,2013-04-25 12:32:00,
2013-04-25 06:00:00,48.0,22.0,-100.00,WNW,290,9.0,11.0,36,0.00,,,0.00,0.000000,,2013-04-25 13:00:00,
2013-04-25 06:32:00,48.0,22.0,-100.00,WNW,290,9.0,11.0,36,0.00,,,0.00,0.000000,,2013-04-25 13:32:00,
2013-04-25 06:42:00,48.0,22.0,-100.00,WNW,290,9.0,11.0,36,0.00,,,0.00,0.000000,,2013-04-25 13:42:00,
2013-04-25 06:52:00,48.0,22.0,-100.00,WNW,290,9.0,11.0,36,0.00,,,0.00,0.000000,,2013-04-25 13:52:00,
2013-04-25 07:00:00,47.0,23.0,-100.00,WNW,291,8.0,12.0,39,0.00,,,0.00,0.000000,,2013-04-25 14:00:00,
2013-04-25 07:32:00,47.0,23.0,-100.00,WNW,291,8.0,12.0,39,0.00,,,0.00,0.000000,,2013-04-25 14:32:00,
2013-04-25 07:42:00,47.0,23.0,-100.00,WNW,291,8.0,12.0,39,0.00,,,0.00,0.000000,,2013-04-25 14:42:00,
2013-04-25 07:52:00,47.0,23.0,-100.00,WNW,291,8.0,12.0,39,0.00,,,0.00,0.000000,,2013-04-25 14:52:00,
2013-04-25 08:00:00,51.0,26.0,-100.00,WNW,298,0.0,11.0,37,-99.99,,,0.00,51.000000,,2013-04-25 15:00:00,
2013-04-25 08:33:00,51.0,26.0,-100.00,WNW,298,0.0,11.0,37,-99.99,,,0.00,51.000000,,2013-04-25 15:33:00,
2013-04-25 08:42:00,51.0,26.0,-100.00,WNW,298,0.0,11.0,37,-99.99,,,0.00,51.000000,,2013-04-25 15:42:00,
2013-04-25 08:53:00,51.0,26.0,-100.00,WNW,298,0.0,11.0,37,-99.99,,,0.00,51.000000,,2013-04-25 15:53:00,
2013-04-25 09:00:00,57.0,35.0,-100.00,ESE,102,3.0,5.0,43,0.00,,,0.00,290.000000,,2013-04-25 16:00:00,
2013-04-25 09:33:00,57.0,35.0,-100.00,ESE,102,3.0,5.0,43,0.00,,,0.00,290.000000,,2013-04-25 16:33:00,
2013-04-25 09:43:00,57.0,35.0,-100.00,ESE,102,3.0,5.0,43,0.00,,,0.00,290.000000,,2013-04-25 16:43:00,
2013-04-25 09:52:00,57.0,35.0,-100.00,ESE,102,3.0,5.0,43,0.00,,,0.00,290.000000,,2013-04-25 16:52:00,
2013-04-25 10:00:00,63.0,36.0,-100.00,ESE,115,3.0,6.0,36,0.00,,,0.00,585.000000,,2013-04-25 17:00:00,
2013-04-25 10:22:00,63.0,36.0,-100.00,ESE,115,3.0,6.0,36,0.00,,,0.00,585.000000,,2013-04-25 17:22:00,
2013-04-25 10:32:00,63.0,36.0,-100.00,ESE,115,3.0,6.0,36,0.00,,,0.00,585.000000,,2013-04-25 17:32:00,
2013-04-25 10:42:00,63.0,36.0,-100.00,ESE,115,3.0,6.0,36,0.00,,,0.00,585.000000,,2013-04-25 17:42:00,
2013-04-25 10:53:00,63.0,36.0,-100.00,ESE,115,3.0,6.0,36,0.00,,,0.00,585.000000,,2013-04-25 17:53:00,
2013-04-25 11:00:00,64.0,37.0,-100.00,ESE,102,5.0,9.0,36,0.00,,,0.00,852.000000,,2013-04-25 18:00:00,
2013-04-25 11:32:00,64.0,37.0,-100.00,ESE,102,5.0,9.0,36,0.00,,,0.00,852.000000,,2013-04-25 18:32:00,
2013-04-25 11:43:00,64.0,37.0,-100.00,ESE,102,5.0,9.0,36,0.00,,,0.00,852.000000,,2013-04-25 18:43:00,
2013-04-25 11:52:00,64.0,37.0,-100.00,ESE,102,5.0,9.0,36,0.00,,,0.00,852.000000,,2013-04-25 18:52:00,
2013-04-25 12:00:00,68.0,39.0,-100.00,East,87,4.0,12.0,34,0.00,,,0.00,1016.000000,,2013-04-25 19:00:00,
2013-04-25 12:21:00,68.0,39.0,-100.00,East,87,4.0,12.0,34,0.00,,,0.00,1016.000000,,2013-04-25 19:21:00,
2013-04-25 12:32:00,68.0,39.0,-100.00,East,87,4.0,12.0,34,0.00,,,0.00,1016.000000,,2013-04-25 19:32:00,
2013-04-25 12:42:00,68.0,39.0,-100.00,East,87,4.0,12.0,34,0.00,,,0.00,1016.000000,,2013-04-25 19:42:00,
2013-04-25 12:52:00,68.0,39.0,-100.00,East,87,4.0,12.0,34,0.00,,,0.00,1016.000000,,2013-04-25 19:52:00,
2013-04-25 13:00:00,72.0,40.0,-100.00,ESE,111,5.0,14.0,31,0.00,,,0.00,1217.000000,,2013-04-25 20:00:00,
2013-04-25 13:32:00,72.0,40.0,-100.00,ESE,111,5.0,14.0,31,0.00,,,0.00,1217.000000,,2013-04-25 20:32:00,
2013-04-25 13:43:00,72.0,40.0,-100.00,ESE,111,5.0,14.0,31,0.00,,,0.00,1217.000000,,2013-04-25 20:43:00,
2013-04-25 13:52:00,72.0,40.0,-100.00,ESE,111,5.0,14.0,31,0.00,,,0.00,1217.000000,,2013-04-25 20:52:00,
2013-04-25 14:00:00,73.0,41.0,-100.00,West,269,15.0,23.0,31,0.00,,,0.00,1299.000000,,2013-04-25 21:00:00,
2013-04-25 14:22:00,73.0,41.0,-100.00,West,269,15.0,23.0,31,0.00,,,0.00,1299.000000,,2013-04-25 21:22:00,
2013-04-25 14:33:00,73.0,41.0,-100.00,West,269,15.0,23.0,31,0.00,,,0.00,1299.000000,,2013-04-25 21:33:00,
2013-04-25 14:42:00,73.0,41.0,-100.00,West,269,15.0,23.0,31,0.00,,,0.00,1299.000000,,2013-04-25 21:42:00,
2013-04-25 14:52:00,73.0,41.0,-100.00,West,269,15.0,23.0,31,0.00,,,0.00,1299.000000,,2013-04-25 21:52:00,
2013-04-25 15:00:00,73.0,40.0,-100.00,WNW,289,17.0,27.0,30,0.00,,,0.00,1306.000000,,2013-04-25 22:00:00,
2013-04-25 15:33:00,73.0,40.0,-100.00,WNW,289,17.0,27.0,30,0.00,,,0.00,1306.000000,,2013-04-25 22:33:00,
2013-04-25 15:42:00,73.0,40.0,-100.00,WNW,289,17.0,27.0,30,0.00,,,0.00,1306.000000,,2013-04-25 22:42:00,
2013-04-25 15:52:00,73.0,40.0,-100.00,WNW,289,17.0,27.0,30,0.00,,,0.00,1306.000000,,2013-04-25 22:52:00,
2013-04-25 16:00:00,71.0,38.0,-100.00,WNW,287,13.0,29.0,30,0.00,,,0.00,1223.000000,,2013-04-25 23:00:00,
2013-04-25 16:32:00,71.0,38.0,-100.00,WNW,287,13.0,29.0,30,0.00,,,0.00,1223.000000,,2013-04-25 23:32:00,
2013-04-25 16:42:00,71.0,38.0,-100.00,WNW,287,13.0,29.0,30,0.00,,,0.00,1223.000000,,2013-04-25 23:42:00,
2013-04-25 16:52:00,71.0,38.0,-100.00,WNW,287,13.0,29.0,30,0.00,,,0.00,1223.000000,,2013-04-25 23:52:00,
2013-04-25 17:00:00,69.0,39.0,-100.00,West,280,15.0,29.0,33,0.00,,,-99.99,1049.000000,,2013-04-26 00:00:00,
2013-04-25 17:22:00,69.0,39.0,-100.00,West,280,15.0,29.0,33,0.00,,,-99.99,1049.000000,,2013-04-26 00:22:00,
2013-04-25 17:32:00,69.0,39.0,-100.00,West,280,15.0,29.0,33,0.00,,,-99.99,1049.000000,,2013-04-26 00:32:00,
2013-04-25 17:42:00,69.0,39.0,-100.00,West,280,15.0,29.0,33,0.00,,,-99.99,1049.000000,,2013-04-26 00:42:00,
2013-04-25 17:52:00,69.0,39.0,-100.00,West,280,15.0,29.0,33,0.00,,,-99.99,1049.000000,,2013-04-26 00:52:00,
2013-04-25 18:00:00,68.0,41.0,-100.00,WNW,287,16.0,32.0,37,0.00,,,0.00,806.000000,,2013-04-26 01:00:00,
2013-04-25 18:22:00,68.0,41.0,-100.00,WNW,287,16.0,32.0,37,0.00,,,0.00,806.000000,,2013-04-26 01:22:00,
2013-04-25 18:32:00,68.0,41.0,-100.00,WNW,287,16.0,32.0,37,0.00,,,0.00,806.000000,,2013-04-26 01:32:00,
2013-04-25 18:42:00,68.0,41.0,-100.00,WNW,287,16.0,32.0,37,0.00,,,0.00,806.000000,,2013-04-26 01:42:00,
2013-04-25 18:52:00,68.0,41.0,-100.00,WNW,287,16.0,32.0,37,0.00,,,0.00,806.000000,,2013-04-26 01:52:00,
2013-04-25 19:00:00,64.0,40.0,-100.00,WNW,287,13.0,29.0,41,0.00,,,-99.99,499.000000,,2013-04-26 02:00:00,
2013-04-25 19:32:00,64.0,40.0,-100.00,WNW,287,13.0,29.0,41,0.00,,,-99.99,499.000000,,2013-04-26 02:32:00,
2013-04-25 19:42:00,64.0,40.0,-100.00,WNW,287,13.0,29.0,41,0.00,,,-99.99,499.000000,,2013-04-26 02:42:00,
2013-04-25 19:52:00,64.0,40.0,-100.00,WNW,287,13.0,29.0,41,0.00,,,-99.99,499.000000,,2013-04-26 02:52:00,
2013-04-25 20:00:00,60.0,38.0,-100.00,WNW,287,16.0,28.0,44,0.00,,,0.00,53.000000,,2013-04-26 03:00:00,
2013-04-25 20:22:00,60.0,38.0,-100.00,WNW,287,16.0,28.0,44,0.00,,,0.00,53.000000,,2013-04-26 03:22:00,
2013-04-25 20:33:00,60.0,38.0,-100.00,WNW,287,16.0,28.0,44,0.00,,,0.00,53.000000,,2013-04-26 03:33:00,
2013-04-25 20:43:00,60.0,38.0,-100.00,WNW,287,16.0,28.0,44,0.00,,,0.00,53.000000,,2013-04-26 03:43:00,
2013-04-25 20:53:00,60.0,38.0,-100.00,WNW,287,16.0,28.0,44,0.00,,,0.00,53.000000,,2013-04-26 03:53:00,
2013-04-25 21:00:00,60.0,36.0,-100.00,WNW,293,10.0,29.0,40,0.00,,,0.00,11.000000,,2013-04-26 04:00:00,
2013-04-25 21:32:00,60.0,36.0,-100.00,WNW,293,10.0,29.0,40,0.00,,,0.00,11.000000,,2013-04-26 04:32:00,
2013-04-25 21:43:00,60.0,36.0,-100.00,WNW,293,10.0,29.0,40,0.00,,,0.00,11.000000,,2013-04-26 04:43:00,
2013-04-25 21:53:00,60.0,36.0,-100.00,WNW,293,10.0,29.0,40,0.00,,,0.00,11.000000,,2013-04-26 04:53:00,
2013-04-25 22:00:00,61.0,30.0,-100.00,West,280,9.0,22.0,31,0.00,,,0.00,0.000000,,2013-04-26 05:00:00,
2013-04-25 22:32:00,61.0,30.0,-100.00,West,280,9.0,22.0,31,0.00,,,0.00,0.000000,,2013-04-26 05:32:00,
2013-04-25 22:42:00,61.0,30.0,-100.00,West,280,9.0,22.0,31,0.00,,,0.00,0.000000,,2013-04-26 05:42:00,
2013-04-25 22:52:00,61.0,30.0,-100.00,West,280,9.0,22.0,31,0.00,,,0.00,0.000000,,2013-04-26 05:52:00,
2013-04-25 23:00:00,60.0,34.0,-100.00,WNW,291,8.0,19.0,38,0.00,,,0.00,0.000000,,2013-04-26 06:00:00,
2013-04-25 23:22:00,60.0,34.0,-100.00,WNW,291,8.0,19.0,38,0.00,,,0.00,0.000000,,2013-04-26 06:22:00,
2013-04-25 23:32:00,60.0,34.0,-100.00,WNW,291,8.0,19.0,38,0.00,,,0.00,0.000000,,2013-04-26 06:32:00,
2013-04-25 23:42:00,60.0,34.0,-100.00,WNW,291,8.0,19.0,38,0.00,,,0.00,0.000000,,2013-04-26 06:42:00,
2013-04-25 23:52:00,60.0,34.0,-100.00,WNW,291,8.0,19.0,38,0.00,,,0.00,0.000000,,2013-04-26 06:52:00,